User: anonymous   Login
Location: Sunrise Point
(46.9200°N, 121.5900°W)
Time: 20:35:26
(UTC-07:00)
Language:

Cosmos 2058 - Orbit

View from above orbital plane
View from above orbital plane
View from above satellite
View from above satellite

Ground track
Ground track

The orbit data is extracted from the following two-line orbital elements,

1 20465U 90010A   17177.70691676 +.00000255 +00000-0 +19592-4 0  9994
2 20465 082.4898 238.7025 0013991 261.6877 098.2759 14.97519071465655
Epoch (UTC): 26 June 2017 16:57:57
Eccentricity: 0.0013991
inclination: 82.4898°
perigee height: 565 km
apogee height: 584 km
right ascension of ascending node: 238.7025°
argument of perigee: 261.6877°
revolutions per day: 14.97519071
mean anomaly at epoch: 98.2759°
orbit number at epoch: 46565

The dashed part of the orbit path shows where the satellite is in the earth's shadow,  

DLR